Theta_e
311 309 304 300 301 302 302 302 303 296 291 292 291 294 294 295 296 296 294 297 300 300 301 300 301 301 301 300 300 300 301 301 301 301 302 303 304 305
299 297 296 297 297 298 299 299 300 298 294 292 291 290 292 293 294 293 293 294 296 298 299 299 299 298 298 298 298 298 299 299 300 301 302 302 303 303
296 295 294 294 294 294 294 293 292 292 290 288 289 290 289 290 291 293 293 292 292 295 295 295 296 296 297 297 297 297 298 298 299 300 300 301 302 302
293 293 292 293 291 291 291 289 289 288 289 287 287 288 288 289 289 288 289 290 289 291 294 295 295 294 294 295 295 296 297 297 297 297 298 299 299 300
292 291 291 291 289 289 289 288 288 288 287 287 284 286 286 286 285 285 286 287 287 289 290 291 292 292 293 294 294 295 295 294 295 295 295 296 297 298
291 290 290 289 288 288 287 287 286 285 285 285 284 285 285 285 283 282 282 282 281 284 286 288 290 291 291 292 292 292 292 292 293 294 295 295 295 296
289 289 290 291 292 290 287 286 286 285 284 284 283 281 278 280 279 279 278 278 278 279 280 281 281 281 282 287 288 289 291 293 293 294 295 295 295 295
286 286 289 290 292 292 292 290 287 282 280 276 273 278 278 277 277 277 275 273 273 280 279 280 280 280 281 281 288 290 291 291 292 293 293 294 294 294
285 285 285 286 284 282 287 288 288 289 288 281 279 278 278 278 275 273 276 272 273 279 278 277 279 279 280 283 287 289 290 291 291 291 292 292 293 293
281 281 280 281 282 283 282 281 281 281 282 284 280 279 279 279 278 276 275 276 278 279 279 272 277 278 279 281 286 288 288 289 289 289 290 291 291 291
281 280 280 281 288 287 281 279 278 278 283 286 286 287 287 288 286 278 274 272 273 277 278 277 277 277 278 278 280 286 287 287 287 288 289 289 289 290
280 281 287 283 286 285 279 277 276 276 277 279 278 279 280 282 285 279 272 267 268 270 278 279 276 276 272 276 278 279 279 285 286 287 288 288 288 286
278 279 280 285 285 284 283 277 278 279 280 277 276 277 278 278 279 279 279 274 276 276 281 280 276 279 278 273 276 277 278 279 279 281 285 286 287 287
278 278 279 284 283 283 281 283 283 282 277 276 276 275 276 277 281 281 282 282 282 280 282 282 278 274 276 275 275 276 278 280 278 279 279 283 286 287
279 281 284 283 282 280 282 283 282 276 276 274 274 273 277 280 280 280 281 282 282 282 279 271 277 276 278 277 276 278 278 279 280 277 278 280 280 283
282 278 280 281 281 280 279 278 277 276 274 271 271 279 280 279 278 279 278 278 277 274 275 275 274 273 277 278 278 278 279 278 279 280 280 281 282 283
279 276 274 275 275 275 276 276 276 277 274 276 278 278 278 278 278 278 278 277 274 275 274 276 278 278 278 277 277 279 279 279 280 279 279 279 281 283
277 274 273 273 273 274 275 275 276 278 279 278 278 277 277 277 277 277 276 272 272 274 273 274 275 275 277 278 282 278 279 278 279 279 279 279 280 283
275 272 272 272 272 272 272 271 273 278 278 277 277 276 277 277 277 275 267 269 271 272 272 272 269 274 273 272 276 284 275 276 279 280 280 281 281 282
273 272 271 272 272 271 269 267 268 276 277 277 276 276 276 276 276 272 270 270 272 272 272 275 272 268 273 274 275 278 284 278 279 279 280 282 284 287
272 272 272 272 271 269 269 266 264 266 271 275 276 275 275 275 275 270 272 277 277 275 272 273 274 281 280 279 276 277 279 285 285 281 281 281 281 281
273 272 272 272 270 267 265 263 261 263 264 265 268 272 273 271 273 273 273 272 273 273 274 275 276 278 278 277 276 277 278 281 285 286 287 286 281 278
273 273 271 270 268 266 262 261 262 264 264 264 265 267 268 271 272 273 273 274 274 273 273 274 277 277 277 277 278 277 278 279 280 280 281 286 287 287
Wind_Speed
5 3 3 3 3 3 2 2 4 4 4 4 4 3 2 3 2 3 4 5 11 12 13 13 16 17 16 16 15 15 16 17 16 16 16 17 17 18
4 6 4 3 4 3 3 2 1 3 3 2 1 2 1 3 3 4 3 6 10 12 14 15 16 15 15 15 15 15 16 16 17 17 17 17 16 17
6 6 6 5 4 4 4 3 3 2 2 2 2 2 1 1 1 2 3 4 4 12 12 13 13 13 14 15 15 14 15 16 16 16 15 16 17 17
6 7 6 5 6 4 4 5 4 3 2 2 2 1 1 2 2 3 3 3 2 7 9 11 11 14 13 15 16 16 15 14 14 15 16 17 18 17
6 7 6 6 6 5 5 5 4 4 3 3 2 1 1 0 1 1 2 2 2 4 7 11 13 15 13 12 14 15 14 15 15 15 16 18 18 18
7 7 7 7 7 6 5 5 4 4 3 2 2 2 2 1 2 1 2 2 2 3 6 3 11 13 14 14 13 12 13 14 15 15 16 17 18 18
8 8 7 10 11 7 4 4 3 2 2 2 2 2 1 1 0 1 1 2 4 1 2 4 4 4 5 9 10 12 12 14 15 16 18 19 19 19
8 6 6 9 8 9 9 7 4 3 2 2 1 1 1 1 0 0 0 3 3 1 3 8 3 5 4 4 11 14 15 15 16 16 17 19 18 19
6 6 5 4 6 5 5 4 4 1 3 4 2 3 2 3 2 1 1 2 3 4 2 4 2 4 4 6 16 15 11 9 11 14 16 17 18 20
5 6 5 4 2 4 4 4 4 3 3 1 3 3 3 4 5 5 5 3 3 4 2 3 2 5 4 6 12 7 4 13 14 14 16 17 18 20
4 4 4 3 4 7 4 3 3 3 5 5 2 4 5 6 4 3 1 2 2 2 0 1 3 6 3 4 3 3 11 18 16 16 17 18 18 19
3 4 6 4 4 3 3 1 1 3 2 3 4 3 4 3 6 4 3 2 2 3 3 3 1 3 5 2 2 5 5 14 17 18 19 17 17 7
3 1 1 2 3 3 3 2 3 3 2 0 1 1 1 2 1 2 2 3 2 3 3 1 2 2 3 5 3 3 4 6 6 9 15 17 16 13
2 1 1 3 3 3 2 4 3 2 1 0 0 1 0 1 2 4 4 4 5 7 6 5 4 3 5 7 8 3 5 7 5 6 5 11 16 19
2 3 2 3 3 3 4 4 2 1 1 1 0 1 1 3 5 3 4 5 5 5 5 4 6 6 6 8 10 11 11 4 7 4 4 7 7 8
1 3 3 2 1 1 0 2 0 2 2 2 2 2 3 3 3 2 3 4 4 5 6 8 7 5 8 9 9 12 9 7 6 9 8 8 8 8
2 1 1 1 1 1 1 1 0 0 1 1 1 2 3 3 3 3 3 3 3 8 7 6 7 7 8 11 11 10 11 10 9 10 9 10 9 9
1 1 1 1 2 2 2 2 2 3 1 2 2 3 4 4 4 4 3 2 6 7 7 6 6 6 6 7 18 10 10 9 9 8 7 10 12 9
2 2 2 2 2 2 3 3 2 3 2 3 3 3 4 5 7 5 2 3 6 6 6 5 4 5 8 11 5 14 5 5 10 10 8 9 11 11
2 2 3 3 3 3 3 3 3 3 3 3 4 5 4 5 6 4 3 5 6 7 7 6 4 3 8 9 10 13 15 7 8 10 11 10 11 22
2 3 3 3 3 3 3 3 3 3 4 5 4 4 6 5 7 4 6 13 13 7 9 9 7 15 8 7 8 12 10 14 15 12 12 11 12 12
4 4 4 3 4 4 3 3 3 3 3 4 4 5 5 4 7 7 6 7 7 7 9 9 9 8 7 8 12 15 12 10 12 20 22 21 12 10
4 4 4 4 4 4 3 3 4 4 4 5 4 4 4 7 7 7 7 8 8 8 9 9 9 9 10 10 15 13 17 14 10 12 11 17 21 24
Wind_Direction
24 49 88 71 74 99 137 165 200 198 228 189 175 176 134 116 168 93 131 230 255 267 272 279 285 289 281 282 289 288 290 292 288 285 285 286 285 283
59 84 64 71 77 71 85 73 360 155 218 64 52 92 122 126 196 159 217 240 258 264 270 279 271 280 285 287 286 288 287 284 285 287 288 291 293 290
69 80 80 79 71 56 54 38 51 36 127 94 71 71 97 177 192 163 227 246 252 267 276 280 280 288 289 291 292 293 291 291 290 290 298 293 287 288
89 92 90 90 85 85 84 83 79 45 86 104 81 116 111 235 194 211 226 250 259 275 289 286 293 300 295 299 294 289 285 296 300 295 289 283 282 281
96 102 107 104 87 79 78 80 68 75 67 90 124 183 175 116 25 311 270 286 272 308 313 310 302 296 298 304 306 305 307 307 297 293 287 282 281 281
78 83 82 85 97 93 90 91 92 80 74 98 72 50 41 6 43 353 321 10 317 308 318 302 320 305 303 305 305 301 297 294 288 282 275 273 275 277
76 83 93 105 107 114 115 102 93 73 67 62 75 47 5 13 131 304 308 311 286 279 293 287 289 286 288 299 301 302 292 286 290 292 287 283 284 284
88 62 63 65 76 88 92 105 125 110 87 108 165 146 248 202 23 354 315 32 330 267 334 303 276 295 295 291 292 295 301 295 293 294 289 286 284 282
109 109 88 68 76 66 49 60 43 68 164 165 172 207 210 208 131 10 245 176 233 279 8 286 312 292 280 281 301 299 293 302 309 313 309 302 296 291
95 97 97 84 77 79 64 57 38 14 342 103 158 192 207 229 192 187 199 219 268 280 164 271 296 280 288 283 299 295 315 337 315 312 307 302 299 295
88 88 98 71 74 75 70 52 23 350 358 18 4 295 274 295 267 117 236 97 316 262 305 267 301 301 285 300 320 333 324 317 312 307 303 305 297 293
68 51 108 94 51 41 102 99 317 274 329 349 350 356 18 6 63 71 139 139 218 334 228 289 287 332 321 277 276 283 271 283 295 302 304 301 299 292
126 105 359 72 353 335 145 179 223 217 287 329 296 327 30 34 56 72 152 156 217 254 285 13 223 262 231 297 254 243 251 274 277 287 288 298 297 291
154 187 251 314 333 328 360 251 272 79 119 266 42 318 284 303 312 300 279 258 229 238 264 256 261 214 262 284 282 293 293 280 259 266 276 286 289 291
162 230 243 291 320 354 315 284 110 131 173 96 250 269 227 302 304 285 278 275 259 256 261 224 237 257 256 270 283 298 312 300 281 264 258 267 271 278
49 336 284 274 196 258 330 23 182 196 173 186 216 268 301 301 291 266 274 282 275 273 271 254 244 228 266 261 269 282 286 285 290 287 279 278 271 261
151 357 338 34 359 329 285 258 277 301 124 255 312 294 284 281 282 273 268 266 269 300 293 283 269 252 251 261 274 267 279 277 275 279 290 290 285 277
90 230 241 224 228 241 245 257 232 266 270 280 274 271 281 277 274 265 243 251 279 286 282 283 292 309 294 246 234 259 264 268 270 271 269 274 283 279
193 227 211 205 232 231 229 216 226 247 223 246 258 268 270 267 290 275 251 256 278 270 269 268 273 278 294 297 259 254 232 272 288 285 270 262 275 283
193 202 223 224 222 220 232 231 258 229 249 237 244 263 258 265 275 266 256 264 276 279 279 261 269 220 261 277 286 284 264 261 268 275 284 279 272 277
225 232 226 226 228 225 230 238 233 253 240 251 237 274 276 271 276 255 269 290 293 294 288 283 270 279 280 281 275 279 283 268 268 276 286 288 291 292
232 232 234 227 225 218 228 227 246 260 265 259 252 257 256 254 273 273 271 275 276 272 273 280 286 282 275 268 273 283 285 283 272 274 268 266 278 282
232 231 231 230 228 226 220 221 224 242 234 242 246 248 246 263 260 262 269 269 272 277 276 283 286 284 276 272 275 280 275 288 294 298 280 269 270 269